Location: Le Sartre
(44.8050°N, 2.2123°E)
Time: 21:37:18
(UTC+00:00)

Cosmos 1812 Rocket - Pass Details

Date: 15 May 2026
Orbit: 599 x 624 km, 82.5° (Epoch: 10 June)

Event Time Altitude Azimuth Distance (km) Brightness Sun altitude
Exits shadow 23:40:00 51° 298° (WNW) 782 4.1 -26.1°
Drops below altitude 10° 23:44:02 10° 359° (N) 2,001 7.2 -26.1°
Sets 23:46:19 0° 5° (N) 2,915 8.3 -26.1°
